星链-1742 (STARLINK-1742 )

导读 | 豆包AI

STARLINK-1742是美国SpaceX公司星链(Starlink)星座中的一员,于2020年9月3日发射升空。星链项目旨在通过近地轨道卫星星座,为全球尤其是偏远欠发达地区提供高速低延迟宽带互联网服务。作为星座组网卫星之一,STARLINK-1742承担着扩展星座覆盖范围、提升网络服务稳定性的作用,推动了星链全球互联网服务部署进程,是SpaceX打造卫星互联网组网的重要组成部分。

基本信息
目录编号:
46376
目录名称:
STARLINK-1742
国际标识:
2020-062BD
轨道中心:
EARTH
卫星名称:
星链-1742
卫星全名:
星链-1742 (STARLINK-1742 )
卫星状态:
在轨 (已飞行2018 天)
发射日期:
2020-09-03 UTC
国别 :
美国 (US)
星等 :
--
轨道信息
数据来源 国际轨道数据
星历时间: 2026-03-14T08:00:02+0800
10小时前
查看轨道信息
半长轴: 6696.262km
偏心率: 0.0005523
轨道倾角: 53.025°
近地点辐角 177.367°
升交点赤经 234.037°
平近点角 209.151°
近地点: 314.426km
远地点: 321.824km
周期: 90.888分钟
每日圈数: 15.843611
详细信息
固有亮度:
5
最大亮度:
2.5
卫星平台:
Starlink V1.0
覆盖范围:
全球
运营商:
太空探索技术公司
运营商所在国:
美国
制造商(研发单位):
太空探索技术公司
制造商所在国:
美国
使用方式:
暂无
卫星简介
星链(Starlink)计划是由太空探索技术公司(SpaceX)提出的一个巨型低轨卫星互联网星座项目,计划在2019年至2024年间在太空搭建由约1.2万颗卫星组成的“星链”网络,其中1584颗将部署在地球上空550千米处的近地轨道,并从2020年开始工作。该卫星仍在工作。
2D轨道图
3D轨道图
轨道高度分析图
轨道倾角分析图
轨道综合分析图
查看轨道综合分析图